TimeEDT,TemperatureF,Dew PointF,Humidity,Sea Level PressureIn,VisibilityMPH,Wind Direction,Wind SpeedMPH,Gust SpeedMPH,PrecipitationIn,Events,Conditions,WindDirDegrees,DateUTC
12:53 AM,64.9,63.0,93,30.01,5.0,Calm,Calm,-,N/A,,Clear,0,2013-09-12 04:53:00
1:53 AM,66.0,63.0,90,29.99,7.0,Calm,Calm,-,N/A,,Clear,0,2013-09-12 05:53:00
2:53 AM,64.0,62.1,93,29.98,5.0,Calm,Calm,-,N/A,,Clear,0,2013-09-12 06:53:00
3:53 AM,68.0,64.9,90,29.96,5.0,WNW,3.5,-,N/A,,Clear,290,2013-09-12 07:53:00
4:53 AM,66.9,64.9,93,29.96,4.0,Calm,Calm,-,N/A,,Mostly Cloudy,0,2013-09-12 08:53:00
5:53 AM,66.9,64.9,93,29.95,4.0,Calm,Calm,-,N/A,,Scattered Clouds,0,2013-09-12 09:53:00
6:53 AM,66.9,64.9,93,29.96,2.5,Calm,Calm,-,N/A,,Scattered Clouds,0,2013-09-12 10:53:00
7:34 AM,68.0,64.4,88,29.99,3.0,Calm,Calm,-,N/A,,Clear,0,2013-09-12 11:34:00
7:53 AM,68.0,66.0,93,29.95,3.0,WNW,3.5,-,0.01,,Clear,290,2013-09-12 11:53:00
8:53 AM,71.1,66.9,87,29.95,5.0,West,5.8,-,N/A,,Scattered Clouds,260,2013-09-12 12:53:00
9:53 AM,70.0,68.0,93,29.94,2.0,West,4.6,-,0.01,Rain,Rain,270,2013-09-12 13:53:00
10:01 AM,69.8,68.0,94,29.97,1.8,West,4.6,-,0.00,Rain,Rain,270,2013-09-12 14:01:00
10:08 AM,69.8,68.0,94,29.96,2.5,WSW,3.5,-,0.01,Rain,Light Rain,240,2013-09-12 14:08:00
10:42 AM,71.6,68.0,88,29.94,6.0,SSW,4.6,-,0.03,Rain,Light Rain,200,2013-09-12 14:42:00
10:53 AM,71.1,68.0,90,29.91,5.0,SSW,4.6,-,0.04,,Mostly Cloudy,210,2013-09-12 14:53:00
11:53 AM,73.9,69.1,85,29.90,7.0,WSW,8.1,-,0.02,,Overcast,250,2013-09-12 15:53:00
12:48 PM,75.2,69.8,83,29.91,6.0,SW,9.2,-,0.01,,Haze,220,2013-09-12 16:48:00
12:53 PM,75.9,70.0,82,29.88,6.0,SW,9.2,-,0.01,,Haze,230,2013-09-12 16:53:00
1:03 PM,77.0,69.8,78,29.91,6.0,WSW,8.1,-,N/A,,Haze,250,2013-09-12 17:03:00
1:11 PM,75.2,69.8,83,29.91,6.0,WSW,8.1,-,N/A,,Haze,240,2013-09-12 17:11:00
1:18 PM,75.2,69.8,83,29.90,5.0,WSW,5.8,-,N/A,,Haze,240,2013-09-12 17:18:00
1:36 PM,77.0,69.8,78,29.89,6.0,SSW,8.1,-,N/A,,Haze,210,2013-09-12 17:36:00
1:53 PM,75.9,68.0,76,29.86,7.0,West,9.2,-,N/A,,Mostly Cloudy,260,2013-09-12 17:53:00
2:53 PM,69.1,60.1,73,29.84,5.0,NW,10.4,27.6,0.01,Rain,Light Rain,320,2013-09-12 18:53:00
3:02 PM,69.8,60.8,73,29.86,1.5,NW,24.2,40.3,0.00,Rain,Rain,320,2013-09-12 19:02:00
3:15 PM,69.8,62.6,78,29.86,4.0,West,12.7,17.3,0.00,Rain,Light Rain,280,2013-09-12 19:15:00
3:28 PM,69.8,62.6,78,29.85,2.0,NNE,5.8,-,N/A,Rain,Light Rain,20,2013-09-12 19:28:00
3:31 PM,69.8,64.4,83,29.85,3.0,Variable,3.5,-,N/A,Rain,Rain,0,2013-09-12 19:31:00
3:51 PM,71.6,66.2,83,29.84,7.0,NW,3.5,-,N/A,Rain,Light Rain,310,2013-09-12 19:51:00
3:53 PM,71.1,66.9,87,29.81,6.0,Calm,Calm,-,N/A,Rain,Light Rain,0,2013-09-12 19:53:00
4:53 PM,73.0,70.0,90,29.77,4.0,West,4.6,-,0.01,,Clear,280,2013-09-12 20:53:00
5:41 PM,64.4,62.6,94,29.82,1.8,WNW,17.3,24.2,0.01,Rain,Heavy Rain,290,2013-09-12 21:41:00
5:53 PM,64.0,62.1,93,29.79,1.5,WNW,12.7,-,0.01,Rain,Rain,290,2013-09-12 21:53:00
6:03 PM,64.4,60.8,88,29.82,3.0,West,11.5,-,N/A,Rain,Rain,270,2013-09-12 22:03:00
6:50 PM,64.4,60.8,88,29.79,2.5,West,4.6,-,N/A,Rain,Rain,270,2013-09-12 22:50:00
6:53 PM,64.0,61.0,90,29.76,4.0,West,5.8,-,N/A,Rain,Light Rain,280,2013-09-12 22:53:00
7:35 PM,64.4,60.8,88,29.78,8.0,WNW,9.2,-,N/A,,Partly Cloudy,300,2013-09-12 23:35:00
7:53 PM,63.0,62.1,97,29.74,8.0,NW,9.2,-,N/A,,Scattered Clouds,310,2013-09-12 23:53:00
8:00 PM,62.6,62.6,100,29.76,7.0,WNW,6.9,-,N/A,,Mostly Cloudy,300,2013-09-13 00:00:00
8:48 PM,62.6,60.8,94,29.79,8.0,WNW,6.9,-,N/A,,Scattered Clouds,290,2013-09-13 00:48:00
8:53 PM,63.0,61.0,93,29.77,8.0,WNW,6.9,-,N/A,,Scattered Clouds,290,2013-09-13 00:53:00
9:32 PM,62.6,60.8,94,29.80,8.0,NW,3.5,-,N/A,,Overcast,320,2013-09-13 01:32:00
9:53 PM,63.0,61.0,93,29.77,8.0,WNW,4.6,-,0.01,,Overcast,300,2013-09-13 01:53:00
10:02 PM,62.6,60.8,94,29.79,8.0,WNW,4.6,-,N/A,,Overcast,300,2013-09-13 02:02:00
10:53 PM,63.0,61.0,93,29.77,4.0,West,5.8,-,0.00,Rain,Light Rain,270,2013-09-13 02:53:00
11:02 PM,62.6,60.8,94,29.80,3.0,WNW,5.8,-,0.00,Rain,Rain,290,2013-09-13 03:02:00
11:19 PM,62.6,60.8,94,29.78,5.0,WNW,4.6,-,N/A,Rain,Light Rain,290,2013-09-13 03:19:00
11:39 PM,62.6,60.8,94,29.78,7.0,West,5.8,-,N/A,Rain,Light Rain,280,2013-09-13 03:39:00
11:48 PM,62.6,60.8,94,29.78,7.0,Calm,Calm,-,N/A,Rain,Light Rain,0,2013-09-13 03:48:00
11:53 PM,63.0,61.0,93,29.75,8.0,Calm,Calm,-,N/A,Rain,Light Rain,0,2013-09-13 03:53:00
11:57 PM,62.6,60.8,94,29.78,8.0,West,3.5,-,N/A,Rain,Light Rain,280,2013-09-13 03:57:00